Regional Weather Roundup
Issued by NWS Raleigh/Durham, NC

Home | Current Version | Previous Version | Text Only | Print | Product List | Glossary On
Versions: 1 2 3 4 5 6 7 8 9 10 11 12 13 14 15 16 17 18 19 20 21 22 23 24 25 26 27 28 29 30 31 32 33 34 35 36 37 38 39 40 41 42 43 44 45 46 47 48 49 50
000
ASUS42 KRAH 081410
RWRRAH
NORTH CAROLINA WEATHER ROUNDUP
NATIONAL WEATHER SERVICE RALEIGH NC
900 AM EST THU DEC 08 2016

NOTE: "FAIR" INDICATES FEW OR NO CLOUDS BELOW 12,000 FEET WITH NO
SIGNIFICANT WEATHER AND/OR OBSTRUCTIONS TO VISIBILITY.

NCZ001-053-055-056-065-067-081500-
WESTERN NORTH CAROLINA

CITY           SKY/WX    TMP DP  RH WIND       PRES   REMARKS
ASHEVILLE      CLOUDY    38  24  57 N12G23    30.13R WCI  30
JEFFERSON      PTSUNNY   32  10  39 NW22G30   30.06R WCI  19
HICKORY        CLOUDY    44  33  65 CALM      30.11R
RUTHERFORDTON  CLOUDY    46  36  68 N6        30.13R
MOUNT AIRY     NOT AVBL
BOONE          MOSUNNY   32  25  73 W16G25    30.08R WCI  22
$$

NCZ021-022-025-041-071-084-088-081500-
CENTRAL NORTH CAROLINA

CITY           SKY/WX    TMP DP  RH WIND       PRES   REMARKS
CHARLOTTE      CLOUDY    50  47  89 NW6       30.11R
GREENSBORO     CLOUDY    46  31  55 N7        30.09R
WINSTON-SALEM  PTSUNNY   46  28  49 N9        30.11R
RALEIGH-DURHAM CLOUDY    51  45  79 VRB5      30.07R
FORT BRAGG     CLOUDY    52  49  88 W8        30.07R
FAYETTEVILLE   CLOUDY    54  49  83 W9        30.08R
BURLINGTON     CLOUDY    47  33  58 NW12      30.08R
LAURINBURG     CLOUDY    53  48  83 W9        30.10R
$$

NCZ011-015-027-028-043-044-047-080-103-081500-
NORTHEASTERN NORTH CAROLINA

CITY           SKY/WX    TMP DP  RH WIND       PRES   REMARKS
ROCKY MT-WILSO CLOUDY    50  48  93 SW5       30.05R
GREENVILLE     CLOUDY    50  48  93 SW6       30.06F
WASHINGTON     CLOUDY    50  47  90 CALM      30.06R
ELIZABETH CITY CLOUDY    50  45  83 SE5       30.03F
MANTEO         CLOUDY    50  47  88 CALM      30.05F
CAPE HATTERAS  NOT AVBL
$$

NCZ078-087-090-091-093-098-101-081500-
SOUTHEASTERN NORTH CAROLINA

CITY           SKY/WX    TMP DP  RH WIND       PRES   REMARKS
LUMBERTON      SUNNY     53  49  86 W7        30.08R
GOLDSBORO      CLOUDY    53  53 100 SW8       30.05R
KINSTON        CLOUDY    54  50  87 SW7       30.07R FOG
KENANSVILLE    NOT AVBL
NEW BERN       CLOUDY    53  48  83 CALM      30.07R
CHERRY POINT   PTSUNNY   54  50  86 CALM      30.06R
BEAUFORT       MOSUNNY   59  53  80 SW10      30.05S
JACKSONVILLE   FOG       50  50 100 W7        30.06R VSB 1/4
WILMINGTON     CLOUDY    50  50 100 W9        30.08R FOG
$$




USA.gov is the U.S. government's official web portal to all federal, state and local government web resources and services.